User: anonymous
Location: NJAA Observatory
(40.6819°N, 74.8979°W)
Time: 06:20:24
(UTC-04:00)
Language:

S-56A Canister/Altair - Orbit

View from above orbital plane
View from above orbital plane
View from above satellite
View from above satellite

Ground track
Ground track

The orbit data is extracted from the following two-line orbital elements,

1 00082U 61004B   14289.36773186 -.00000172  00000-0 -10561-3 0  7307
2 00082 038.8585 303.8681 1176699 171.5976 190.6424 12.25645878553640
Epoch (UTC): 16 October 2014 08:49:32
Eccentricity: 0.1176699
inclination: 38.8585°
perigee height: 633 km
apogee height: 2503 km
right ascension of ascending node: 303.8681°
argument of perigee: 171.5976°
revolutions per day: 12.25645878
mean anomaly at epoch: 190.6424°
orbit number at epoch: 55364

The dashed part of the orbit path shows where the satellite is in the earth's shadow,  

DLR